When you browse on this site, cookies collect data to enhance your experience and personalize the content and advertising you see.
Visit our Privacy Policy to learn more. By continuing to use the site, you agree to this use of cookies and data.
  • In Sweden
  • List of Countries
  • For 7 days
  • Water Temperature
  • Weather Map
  • Weather Widgets
  • user-avatar
    Login

    Hourly Weather Mochudi

    Today, 8 April, Wednesday

    Time Temperature Precipitation Wind Pressure Humidity
    00:00 +20°C° 0 mm 3 mps 679 mmHg 26%
    01:00 +19°C° 0 mm 2 mps 679 mmHg 28%
    02:00 +18°C° 0 mm 2 mps 680 mmHg 30%
    03:00 +18°C° 0 mm 2 mps 680 mmHg 31%
    04:00 +17°C° 0 mm 2 mps 679 mmHg 31%
    05:00 +17°C° 0 mm 2 mps 679 mmHg 32%
    06:00 +18°C° 0 mm 2 mps 680 mmHg 31%
    07:00 +19°C° 0 mm 3 mps 681 mmHg 30%
    08:00 +21°C° 0 mm 3 mps 682 mmHg 29%
    09:00 +23°C° 0 mm 4 mps 682 mmHg 34%
    10:00 +26°C° 0 mm 6 mps 683 mmHg 39%
    11:00 +29°C° 0 mm 7 mps 683 mmHg 44%
    12:00 +30°C° 0 mm 7 mps 683 mmHg 39%
    13:00 +33°C° 0 mm 6 mps 682 mmHg 33%
    14:00 +34°C° 0 mm 6 mps 682 mmHg 28%
    15:00 +33°C° 0 mm 5 mps 681 mmHg 30%
    16:00 +32°C° 0 mm 5 mps 681 mmHg 32%
    17:00 +30°C° 0 mm 5 mps 680 mmHg 33%
    18:00 +29°C° 0 mm 5 mps 681 mmHg 39%
    19:00 +27°C° 0 mm 6 mps 681 mmHg 46%
    20:00 +24°C° 0 mm 6 mps 682 mmHg 52%
    21:00 +23°C° 0 mm 6 mps 682 mmHg 56%
    22:00 +22°C° 0 mm 6 mps 683 mmHg 59%
    23:00 +21°C° 0 mm 6 mps 683 mmHg 63%

    Tomorrow, 9 April, Thursday

    Time Temperature Precipitation Wind Pressure Humidity
    00:00 +20°C° 0 mm 6 mps 683 mmHg 67%
    01:00 +19°C° 0 mm 6 mps 683 mmHg 71%
    02:00 +17°C° 0 mm 6 mps 683 mmHg 74%
    03:00 +17°C° 0 mm 6 mps 683 mmHg 74%
    04:00 +19°C° 0 mm 6 mps 684 mmHg 74%
    05:00 +18°C° 0 mm 7 mps 684 mmHg 73%
    06:00 +18°C° 0 mm 7 mps 684 mmHg 72%
    07:00 +18°C° 0 mm 7 mps 685 mmHg 71%
    08:00 +19°C° 0 mm 6 mps 685 mmHg 70%
    09:00 +20°C° 0 mm 6 mps 685 mmHg 68%
    10:00 +20°C° 0 mm 6 mps 686 mmHg 65%
    11:00 +21°C° 0 mm 6 mps 686 mmHg 63%
    12:00 +23°C° 0 mm 6 mps 685 mmHg 56%
    13:00 +26°C° 0 mm 5 mps 685 mmHg 49%
    14:00 +28°C° 0 mm 5 mps 684 mmHg 42%
    15:00 +28°C° 0 mm 5 mps 684 mmHg 40%
    16:00 +28°C° 0 mm 5 mps 684 mmHg 39%
    17:00 +29°C° 0 mm 4 mps 684 mmHg 37%
    18:00 +27°C° 0 mm 4 mps 684 mmHg 42%
    19:00 +25°C° 0 mm 4 mps 683 mmHg 47%
    20:00 +22°C° 0 mm 4 mps 683 mmHg 52%
    21:00 +22°C° 0 mm 4 mps 684 mmHg 55%
    22:00 +21°C° 0 mm 4 mps 684 mmHg 58%
    23:00 +20°C° 0 mm 4 mps 684 mmHg 61%

    Day after tomorrow, 10 April, Friday

    Time Temperature Precipitation Wind Pressure Humidity
    00:00 +19°C° 0 mm 3 mps 684 mmHg 65%
    01:00 +19°C° 0 mm 3 mps 684 mmHg 69%
    02:00 +18°C° 0 mm 3 mps 684 mmHg 73%
    03:00 +17°C° 0 mm 3 mps 684 mmHg 77%
    04:00 +16°C° 0 mm 2 mps 684 mmHg 81%
    05:00 +15°C° 0 mm 2 mps 684 mmHg 85%
    06:00 +16°C° 0 mm 3 mps 684 mmHg 80%
    07:00 +17°C° 0 mm 3 mps 685 mmHg 76%
    08:00 +19°C° 0 mm 4 mps 685 mmHg 71%
    09:00 +21°C° 0 mm 4 mps 685 mmHg 62%
    10:00 +23°C° 0 mm 4 mps 686 mmHg 54%
    11:00 +27°C° 0 mm 4 mps 686 mmHg 45%
    12:00 +28°C° 0 mm 4 mps 685 mmHg 40%
    13:00 +29°C° 0 mm 4 mps 684 mmHg 35%
    14:00 +31°C° 0 mm 3 mps 684 mmHg 29%
    15:00 +31°C° 0 mm 3 mps 683 mmHg 28%
    16:00 +31°C° 0 mm 3 mps 683 mmHg 27%
    17:00 +31°C° 0 mm 2 mps 683 mmHg 26%
    18:00 +28°C° 0 mm 2 mps 683 mmHg 30%
    19:00 +26°C° 0 mm 2 mps 682 mmHg 35%
    20:00 +24°C° 0 mm 2 mps 682 mmHg 40%
    21:00 +23°C° 0 mm 2 mps 682 mmHg 42%
    22:00 +22°C° 0 mm 1 mps 682 mmHg 44%
    23:00 +22°C° 0 mm 1 mps 682 mmHg 46%

    11 April, Saturday

    Time Temperature Precipitation Wind Pressure Humidity
    00:00 +21°C° 0 mm 1 mps 682 mmHg 49%
    01:00 +20°C° 0 mm 1 mps 682 mmHg 51%
    02:00 +20°C° 0 mm 1 mps 682 mmHg 54%
    03:00 +19°C° 0 mm 1 mps 682 mmHg 57%
    04:00 +18°C° 0 mm 1 mps 682 mmHg 61%
    05:00 +18°C° 0 mm 1 mps 682 mmHg 64%
    06:00 +19°C° 0 mm 1 mps 682 mmHg 60%
    07:00 +20°C° 0 mm 1 mps 682 mmHg 57%
    08:00 +20°C° 0 mm 2 mps 683 mmHg 53%
    09:00 +24°C° 0 mm 2 mps 683 mmHg 45%
    10:00 +27°C° 0 mm 2 mps 683 mmHg 37%
    11:00 +30°C° 0 mm 2 mps 684 mmHg 30%
    12:00 +32°C° 0 mm 2 mps 683 mmHg 25%
    13:00 +34°C° 0 mm 1 mps 683 mmHg 21%
    14:00 +35°C° 0 mm 1 mps 682 mmHg 17%
    15:00 +34°C° 0 mm 1 mps 682 mmHg 18%
    16:00 +34°C° 0 mm 1 mps 681 mmHg 18%
    17:00 +33°C° 0 mm 1 mps 680 mmHg 18%
    18:00 +30°C° 0 mm 1 mps 680 mmHg 21%
    19:00 +28°C° 0 mm 1 mps 680 mmHg 24%
    20:00 +26°C° 0 mm 2 mps 680 mmHg 27%
    21:00 +25°C° 0 mm 2 mps 680 mmHg 30%
    22:00 +24°C° 0 mm 2 mps 680 mmHg 32%
    23:00 +23°C° 0 mm 2 mps 680 mmHg 35%

    12 April, Sunday

    Time Temperature Precipitation Wind Pressure Humidity
    00:00 +22°C° 0 mm 1 mps 679 mmHg 36%
    01:00 +22°C° 0 mm 1 mps 679 mmHg 37%
    02:00 +21°C° 0 mm 1 mps 679 mmHg 39%
    03:00 +21°C° 0 mm 1 mps 679 mmHg 40%
    04:00 +21°C° 0 mm 1 mps 679 mmHg 41%
    05:00 +20°C° 0 mm 1 mps 679 mmHg 42%
    06:00 +20°C° 0 mm 2 mps 679 mmHg 40%
    07:00 +23°C° 0 mm 2 mps 680 mmHg 38%
    08:00 +24°C° 0 mm 2 mps 680 mmHg 36%
    09:00 +27°C° 0 mm 2 mps 681 mmHg 31%
    10:00 +30°C° 0 mm 3 mps 681 mmHg 26%
    11:00 +34°C° 0 mm 3 mps 682 mmHg 21%
    12:00 +35°C° 0 mm 3 mps 681 mmHg 21%
    13:00 +35°C° 0 mm 4 mps 680 mmHg 20%
    14:00 +36°C° 0 mm 4 mps 679 mmHg 20%
    15:00 +34°C° 0 mm 5 mps 679 mmHg 24%
    16:00 +33°C° 0 mm 6 mps 679 mmHg 28%
    17:00 +32°C° 0 mm 6 mps 678 mmHg 32%
    18:00 +30°C° 0 mm 5 mps 679 mmHg 36%
    19:00 +28°C° 0 mm 4 mps 679 mmHg 40%
    20:00 +27°C° 0 mm 3 mps 679 mmHg 44%
    21:00 +27°C° 0 mm 3 mps 679 mmHg 46%
    22:00 +26°C° 0 mm 3 mps 679 mmHg 48%
    23:00 +26°C° 0 mm 3 mps 680 mmHg 49%

    13 April, Monday

    Time Temperature Precipitation Wind Pressure Humidity
    00:00 +25°C° 0 mm 2 mps 679 mmHg 50%
    01:00 +25°C° 0 mm 2 mps 679 mmHg 50%
    02:00 +24°C° 0 mm 1 mps 679 mmHg 51%
    03:00 +24°C° 0 mm 1 mps 679 mmHg 50%
    04:00 +24°C° 0 mm 1 mps 679 mmHg 50%
    05:00 +23°C° 0 mm 2 mps 679 mmHg 49%
    06:00 +23°C° 0.1 mm 2 mps 679 mmHg 48%
    07:00 +23°C° 0.1 mm 2 mps 680 mmHg 48%
    08:00 +23°C° 0.1 mm 2 mps 680 mmHg 47%
    09:00 +24°C° 0 mm 2 mps 681 mmHg 45%
    10:00 +25°C° 0 mm 2 mps 682 mmHg 44%
    11:00 +26°C° 0 mm 2 mps 682 mmHg 42%
    12:00 +25°C° 0.4 mm 2 mps 682 mmHg 50%
    13:00 +23°C° 0.4 mm 2 mps 681 mmHg 57%
    14:00 +21°C° 0.4 mm 3 mps 680 mmHg 65%
    15:00 +20°C° 0.2 mm 3 mps 680 mmHg 70%
    16:00 +20°C° 0.2 mm 3 mps 679 mmHg 75%
    17:00 +19°C° 0.2 mm 3 mps 679 mmHg 80%
    18:00 +19°C° 0.2 mm 3 mps 679 mmHg 81%
    19:00 +19°C° 0.2 mm 2 mps 679 mmHg 82%
    20:00 +20°C° 0.2 mm 1 mps 680 mmHg 82%
    21:00 +20°C° 0.4 mm 1 mps 680 mmHg 84%
    22:00 +19°C° 0.4 mm 1 mps 680 mmHg 86%
    23:00 +19°C° 0.4 mm 1 mps 680 mmHg 88%
    Show more